Flag for U.S.A. Weather past 2 weeks in Vincennes, Indiana, U.S.A.

Now
56 °F

Fog.


Feels Like: 56 °F
Forecast: 51 / 72 °F
Wind: No wind

Location: Lawrenceville-Vincennes International Airport

Current Time: Sep 18, 2014 at 2:14:54 AM

Latest Report: Sep 18, 2014 at 1:53 AM


Visibility: 6 mi

Pressure: 30.02 "Hg

Humidity: 93%

Dew point: 54 °F

Location of VincennesLocation

Historic Weather in Vincennes — Graph

°F

Vincennes temperature yesterday

Maximum temperature yesterday: 69 °F (at 2:53 PM)
Minimum temperature yesterday: 44 °F (at 4:53 AM)
Average temperature yesterday: 57 °F

Past Weeks' High & Low Weather Summary

 TemperatureHumidityPressure
High92 °F (Sep 5, 2:53 PM)100% (Sep 3, 12:03 AM)30.36 "Hg (Sep 3, 12:03 AM)
Low44 °F (Sep 17, 4:53 AM)37% (Sep 8, 5:53 PM)29.70 "Hg (Sep 10, 8:53 PM)
Average66 °F80%30.09 "Hg
* Reported Sep 3 12:03 AM — Sep 18 12:53 AM, Vincennes, Weather by CustomWeather, © 2014

Note: Actual official high and low records may vary slightly from our data, if they occured in-between our weather recording intervals... More about our weather records

Advertising

Vincennes weather history for previous 24 hours

 ConditionsComfort  
Time TempWeatherWind HumidityBarometerVisibility
12:53 AM
Sep 18
57 °FPassing clouds.5 mph90%30.02 "Hg7 mi
11:53 PM
Sep 17
60 °FOvercast.5 mph86%30.02 "Hg8 mi
10:53 PM60 °FOvercast.5 mph90%30.01 "Hg8 mi
9:53 PM60 °FOvercast.7 mph90%30.00 "Hg9 mi
8:53 PM61 °FPartly sunny.6 mph87%29.98 "Hg10 mi
7:53 PM61 °FPassing clouds.7 mph90%29.96 "Hg9 mi
6:53 PM64 °FOvercast.No wind78%29.96 "Hg10 mi
5:53 PM65 °FOvercast.6 mph70%29.97 "Hg10 mi
4:53 PM68 °FPartly sunny.7 mph55%29.96 "Hg10 mi
3:53 PM68 °FPartly sunny.5 mph55%29.99 "Hg10 mi
2:53 PM69 °FScattered clouds.6 mph55%30.03 "Hg10 mi
1:53 PM66 °FPartly sunny.3 mph61%30.06 "Hg10 mi
12:53 PM65 °FPartly sunny.5 mph63%30.07 "Hg10 mi
11:53 AM64 °FPassing clouds.7 mph65%30.05 "Hg10 mi
10:53 AM61 °FSunny.3 mph75%30.06 "Hg8 mi
9:53 AM55 °FFog.5 mph90%30.07 "Hg5 mi
8:53 AM49 °FFog.No wind100%30.08 "Hg2 mi
7:53 AM45 °FFog.3 mph97%30.08 "Hg0 mi
6:53 AM44 °FFog.No wind100%30.08 "Hg0 mi
5:53 AM45 °FFog.No wind97%30.08 "Hg0 mi
4:53 AM44 °FFog.No wind96%30.09 "Hg1 mi
3:53 AM45 °FFog.No wind100%30.09 "Hg1 mi
2:53 AM46 °FFog.No wind93%30.10 "Hg1 mi
Weather by CustomWeather, © 2014

See weather overviewHow to use our weather pages